LFBALFBH

Guest
Details From LFBA - Agen la Garenne
To LFBH - La Rochelle Laleu
Flight Number -
Tags generated
Created
Modified
Stats Distance 144 nm / 266 km
Max Altitude 12,900 ft / 3,932 m
Waypoints 3
Social Downloads 0
Likes 0
Share VATSIM

Download

Looking for another format? Having issues loading an existing format? Contact us
Advertisement - Login to hide

Notes

Basic altitude profile: - Ascent Rate: 2500ft/min - Ascent Speed: 120kts - Cruise Altitude: 80ft - Cruise Speed: 170kts - Descent Rate: 1500ft/min - Descent Speed: 120kts Options: - Use NATs: yes - Use PACOTS: yes - Use low airways: yes - Use high airways: yes

Route

LFBA SAUX5 LFBH

ID Type Via Altitude Latitude Longitude Leg Dist Tot Dist Heading (true) Name
O LFBA APT - 0 ft / 0 m 44.17403˚ 0.59296˚ - 0 nm - Agen la Garenne
SAUX5 FIX - 12,900 ft / 3,932 m 44.63889˚ -0.04583˚ 39 nm 39 nm 316° / 315° -
O LFBH APT - 0 ft / 0 m 46.17924˚ -1.19641˚ 104 nm 143 nm 333° / 332° La Rochelle Laleu

Altitude Profile

Advertisement - Login to hide

LFBA

Details ICAO LFBA (AGF)
Name Agen la Garenne
Region France
Timezone Europe/Paris (UTC+1.0)
Stats Elevation 204 ft / 62 m (AMSL)
Location 44.174025° 0.592961°
Runways 1
Magnetic Variation 0.340° E

METAR

LFBA 110530Z AUTO 25008KT 220V280 9999 -RA NSC 10/08 Q0984 BECMG 25015G25KT RA

Decode

TAF

Not found

Departure Runways

ID Width Length Bearing (true) Bearing (mag) Surface Threshold Offset Overrun Length
11 98 ft / 30 m 7,088 ft / 2,161 m 112.24° 111.90° Asphalt 541 ft / 165 m 0 ft / 0 m
29 98 ft / 30 m 7,088 ft / 2,161 m 292.26° 291.92° Asphalt 1,312 ft / 400 m 0 ft / 0 m

LFBH

Details ICAO LFBH (LRH)
Name La Rochelle Laleu
Region France
Timezone Europe/Paris (UTC+1.0)
Stats Elevation 74 ft / 23 m (AMSL)
Location 46.179245° -1.196410°
Runways 1
Magnetic Variation 0.303° W

METAR

LFBH 110530Z AUTO 24032G50KT 210V270 9000 BKN026 OVC035 10/05 Q0973 BECMG SHRA BKN025TCU

Decode

TAF

TAF TAF LFBH 102300Z 1100/1124 16015G30KT 5000 RA BKN010 TEMPO 1100/1103 OVC005 BECMG 1103/1105 20030G50KT 9999 -RA BKN030 BECMG 1106/1108 26030G55KT SHRA BKN025TCU BECMG 1108/1110 30030G50KT BECMG 1110/1112 30020G35KT BECMG 1113/1115 30015G25KT NSW BKN040

Decode

Destination Runways

ID Width Length Bearing (true) Bearing (mag) Surface Threshold Offset Overrun Length
10 148 ft / 45 m 7,383 ft / 2,250 m 92.43° 92.73° Asphalt 1,033 ft / 315 m 0 ft / 0 m
28 148 ft / 45 m 7,383 ft / 2,250 m 272.45° 272.75° Asphalt 1,532 ft / 467 m 0 ft / 0 m

Approach Navaids

Runway Type Ident Frequency Range Bearing (true) Bearing (mag) Slope Elevation
28 Localiser RL 109.55 MHz 18 nm / 33 km 272.43° 272.73° - 72 ft / 22 m (AMSL)
28 Glidescope RL 109.55 MHz 10 nm / 19 km 272.44° 272.74° 3.10° 108 ft / 33 m (AMSL)
28 DME RL 109.55 MHz 18 nm / 33 km - - - 66 ft / 20 m (AMSL)

Popular Alternatives